• In Germany
  • List of Countries
  • For 7 days
  • Water Temperature
  • Satellite Maps
  • Weather Map
  • Weather Widgets
  • user-avatar
    Login

    Hourly Weather Karwia

    Today, 12 December, Tuesday

    Time Temperature Precipitation Wind Pressure Humidity
    00:00 +2°C° 0.6 mm 8 mps 741 mmHg 93%
    01:00 +4°C° 0 mm 8 mps 740 mmHg 94%
    02:00 +4°C° 0.6 mm 7 mps 740 mmHg 94%
    03:00 +4°C° 0.6 mm 7 mps 740 mmHg 95%
    04:00 +4°C° 0.6 mm 7 mps 740 mmHg 95%
    05:00 +4°C° 0.6 mm 7 mps 740 mmHg 94%
    06:00 +4°C° 0.6 mm 7 mps 740 mmHg 94%
    07:00 +4°C° 0 mm 6 mps 741 mmHg 93%
    08:00 +4°C° 0.1 mm 7 mps 741 mmHg 90%
    09:00 +5°C° 0.1 mm 8 mps 741 mmHg 86%
    10:00 +5°C° 0.1 mm 9 mps 742 mmHg 83%
    11:00 +5°C° 0 mm 9 mps 742 mmHg 80%
    12:00 +5°C° 0 mm 10 mps 743 mmHg 77%
    13:00 +5°C° 0 mm 9 mps 743 mmHg 77%
    14:00 +5°C° 0.1 mm 10 mps 744 mmHg 77%
    15:00 +3°C° 0.1 mm 11 mps 744 mmHg 76%
    16:00 +1°C° 0.1 mm 13 mps 745 mmHg 76%
    17:00 +2°C° 0.2 mm 12 mps 746 mmHg 75%
    18:00 +2°C° 0.2 mm 12 mps 747 mmHg 75%
    19:00 0°C° 0.2 mm 12 mps 747 mmHg 74%
    20:00 0°C° 0.5 mm 12 mps 748 mmHg 75%
    21:00 0°C° 0.5 mm 12 mps 750 mmHg 76%
    22:00 -1°C° 0.5 mm 12 mps 751 mmHg 78%
    23:00 -1°C° 0.1 mm 11 mps 752 mmHg 76%

    Tomorrow, 13 December, Wednesday

    Time Temperature Precipitation Wind Pressure Humidity
    00:00 -1°C° 0.1 mm 11 mps 753 mmHg 74%
    01:00 -1°C° 0.1 mm 11 mps 754 mmHg 73%
    02:00 0°C° 0.1 mm 10 mps 755 mmHg 76%
    03:00 0°C° 0.1 mm 10 mps 755 mmHg 78%
    04:00 0°C° 0.1 mm 10 mps 756 mmHg 81%
    05:00 -2°C° 0.1 mm 10 mps 756 mmHg 83%
    06:00 -2°C° 0.1 mm 10 mps 757 mmHg 85%
    07:00 -3°C° 0.1 mm 10 mps 757 mmHg 87%
    08:00 -3°C° 0 mm 10 mps 757 mmHg 86%
    09:00 -3°C° 0 mm 10 mps 758 mmHg 84%
    10:00 -1°C° 0 mm 9 mps 758 mmHg 82%
    11:00 -1°C° 0 mm 9 mps 758 mmHg 81%
    12:00 -1°C° 0 mm 9 mps 757 mmHg 80%
    13:00 -1°C° 0 mm 9 mps 757 mmHg 79%
    14:00 -1°C° 0 mm 9 mps 756 mmHg 79%
    15:00 -2°C° 0 mm 10 mps 756 mmHg 79%
    16:00 -3°C° 0 mm 10 mps 755 mmHg 79%
    17:00 -3°C° 0 mm 10 mps 755 mmHg 77%
    18:00 -3°C° 0 mm 11 mps 754 mmHg 76%
    19:00 -3°C° 0 mm 11 mps 754 mmHg 74%
    20:00 -3°C° 0 mm 11 mps 753 mmHg 73%
    21:00 -3°C° 0 mm 11 mps 752 mmHg 72%
    22:00 -3°C° 0 mm 12 mps 751 mmHg 71%
    23:00 -3°C° 0 mm 12 mps 749 mmHg 71%

    Day after tomorrow, 14 December, Thursday

    Time Temperature Precipitation Wind Pressure Humidity
    00:00 -3°C° 0 mm 12 mps 748 mmHg 70%
    01:00 -2°C° 0 mm 12 mps 747 mmHg 69%
    02:00 -2°C° 0.1 mm 12 mps 746 mmHg 70%
    03:00 -2°C° 0.1 mm 12 mps 745 mmHg 71%
    04:00 -2°C° 0.1 mm 12 mps 744 mmHg 73%
    05:00 -2°C° 0.2 mm 12 mps 743 mmHg 74%
    06:00 -2°C° 0.2 mm 12 mps 742 mmHg 75%
    07:00 -2°C° 0.2 mm 12 mps 741 mmHg 76%
    08:00 -1°C° 0.7 mm 12 mps 740 mmHg 79%
    09:00 -1°C° 0.7 mm 11 mps 740 mmHg 82%
    10:00 +1°C° 0.7 mm 11 mps 740 mmHg 84%
    11:00 +1°C° 0.2 mm 11 mps 740 mmHg 82%
    12:00 +1°C° 0.2 mm 11 mps 740 mmHg 80%
    13:00 +1°C° 0.2 mm 11 mps 740 mmHg 78%
    14:00 -1°C° 0.1 mm 11 mps 741 mmHg 78%
    15:00 -1°C° 0.1 mm 11 mps 741 mmHg 78%
    16:00 -1°C° 0.1 mm 11 mps 742 mmHg 79%
    17:00 -1°C° 0.1 mm 11 mps 742 mmHg 78%
    18:00 -2°C° 0.1 mm 11 mps 742 mmHg 77%
    19:00 -2°C° 0.1 mm 11 mps 742 mmHg 77%
    20:00 -2°C° 0.1 mm 11 mps 742 mmHg 77%
    21:00 -2°C° 0.1 mm 11 mps 742 mmHg 78%
    22:00 -2°C° 0.1 mm 11 mps 742 mmHg 78%
    23:00 -2°C° 0 mm 11 mps 742 mmHg 80%

    15 December, Friday

    Time Temperature Precipitation Wind Pressure Humidity
    00:00 -2°C° 0 mm 11 mps 742 mmHg 81%
    01:00 -3°C° 0 mm 11 mps 742 mmHg 82%
    02:00 -2°C° 0 mm 11 mps 741 mmHg 82%
    03:00 -2°C° 0 mm 11 mps 741 mmHg 82%
    04:00 -2°C° 0 mm 11 mps 741 mmHg 82%
    05:00 -3°C° 0 mm 10 mps 741 mmHg 83%
    06:00 -3°C° 0 mm 10 mps 740 mmHg 84%
    07:00 -3°C° 0 mm 9 mps 740 mmHg 85%
    08:00 -2°C° 0 mm 8 mps 740 mmHg 85%
    09:00 -1°C° 0 mm 8 mps 740 mmHg 85%
    10:00 -1°C° 0 mm 7 mps 739 mmHg 85%
    11:00 -1°C° 0 mm 7 mps 739 mmHg 85%
    12:00 0°C° 0 mm 7 mps 739 mmHg 85%
    13:00 0°C° 0 mm 7 mps 739 mmHg 85%
    14:00 0°C° 0.1 mm 7 mps 740 mmHg 85%
    15:00 0°C° 0.1 mm 8 mps 741 mmHg 85%
    16:00 0°C° 0.1 mm 9 mps 741 mmHg 86%
    17:00 0°C° 0.1 mm 9 mps 742 mmHg 86%
    18:00 0°C° 0.1 mm 9 mps 742 mmHg 86%
    19:00 0°C° 0.1 mm 9 mps 743 mmHg 86%
    20:00 0°C° 0.1 mm 9 mps 743 mmHg 86%
    21:00 0°C° 0.1 mm 9 mps 744 mmHg 86%
    22:00 0°C° 0.1 mm 9 mps 744 mmHg 86%
    23:00 0°C° 0 mm 9 mps 744 mmHg 86%

    16 December, Saturday

    Time Temperature Precipitation Wind Pressure Humidity
    00:00 -1°C° 0 mm 9 mps 744 mmHg 87%
    01:00 -3°C° 0 mm 9 mps 745 mmHg 87%
    02:00 -1°C° 0 mm 9 mps 745 mmHg 87%
    03:00 -1°C° 0 mm 9 mps 745 mmHg 86%
    04:00 -1°C° 0 mm 9 mps 745 mmHg 85%
    05:00 -1°C° 0 mm 9 mps 745 mmHg 86%
    06:00 -1°C° 0 mm 9 mps 746 mmHg 86%
    07:00 -1°C° 0 mm 8 mps 746 mmHg 87%
    08:00 -1°C° 0.1 mm 9 mps 746 mmHg 86%
    09:00 -1°C° 0.1 mm 9 mps 747 mmHg 85%
    10:00 -1°C° 0.1 mm 9 mps 747 mmHg 83%
    11:00 -1°C° 0.2 mm 9 mps 747 mmHg 83%
    12:00 -1°C° 0.2 mm 9 mps 747 mmHg 82%
    13:00 0°C° 0.2 mm 9 mps 748 mmHg 81%
    14:00 0°C° 0.2 mm 9 mps 748 mmHg 81%
    15:00 -1°C° 0.2 mm 9 mps 748 mmHg 81%
    16:00 -1°C° 0.2 mm 9 mps 748 mmHg 81%
    17:00 -1°C° 0.2 mm 9 mps 749 mmHg 81%
    18:00 -1°C° 0.2 mm 8 mps 749 mmHg 81%
    19:00 -1°C° 0.2 mm 8 mps 750 mmHg 81%
    20:00 -1°C° 0.2 mm 8 mps 750 mmHg 80%
    21:00 -1°C° 0.2 mm 8 mps 751 mmHg 80%
    22:00 -1°C° 0.2 mm 8 mps 751 mmHg 80%
    23:00 -1°C° 0.1 mm 8 mps 752 mmHg 81%

    17 December, Sunday

    Time Temperature Precipitation Wind Pressure Humidity
    00:00 -1°C° 0.1 mm 7 mps 753 mmHg 82%
    01:00 -1°C° 0.1 mm 7 mps 753 mmHg 83%
    02:00 -1°C° 0.1 mm 7 mps 754 mmHg 84%
    03:00 -1°C° 0.1 mm 7 mps 754 mmHg 84%
    04:00 -1°C° 0.1 mm 7 mps 755 mmHg 85%
    05:00 -1°C° 0.1 mm 6 mps 755 mmHg 85%
    06:00 -1°C° 0.1 mm 6 mps 756 mmHg 85%
    07:00 -1°C° 0.1 mm 6 mps 757 mmHg 85%
    08:00 -1°C° 0 mm 6 mps 757 mmHg 84%
    09:00 -1°C° 0 mm 6 mps 758 mmHg 82%
    10:00 -1°C° 0 mm 6 mps 759 mmHg 80%
    11:00 -1°C° 0 mm 6 mps 759 mmHg 78%
    12:00 -1°C° 0 mm 6 mps 760 mmHg 76%
    13:00 -1°C° 0 mm 6 mps 760 mmHg 73%
    14:00 -1°C° 0 mm 6 mps 761 mmHg 75%
    15:00 -2°C° 0 mm 6 mps 761 mmHg 78%
    16:00 -3°C° 0 mm 6 mps 762 mmHg 80%
    17:00 -3°C° 0 mm 6 mps 762 mmHg 81%
    18:00 -3°C° 0 mm 6 mps 763 mmHg 81%
    19:00 -2°C° 0 mm 5 mps 763 mmHg 82%
    20:00 -2°C° 0 mm 5 mps 764 mmHg 82%
    21:00 -2°C° 0 mm 5 mps 764 mmHg 82%
    22:00 -2°C° 0 mm 5 mps 765 mmHg 82%
    23:00 -2°C° 0 mm 5 mps 765 mmHg 82%
    Show more